SCP
0 0 0 0 0 0 0 0 0 0 0 0 0 0 0 0 0 -0 0 0 0 0 0 0 0 0 0 0 0 0 0 0 0 0 0 0 0 0 0 0 0 0 0 0
0 0 0 0 0 0 0 0 0 0 0 0 0 0 0 -0 -0 0 0 0 0 0 0 0 0 0 0 0 0 0 0 0 0 0 0 0 0 0 0 0 0 0 0 0
0 0 0 0 0 0 0 0 0 0 0 0 0 0 0 0 -0 0 0 0 0 0 0 0 0 0 0 0 0 0 0 0 0 0 0 0 0 0 0 0 0 0 0 0
0 0 0 0 0 0 0 0 0 0 0 0 0 0 0 0 0 0 0 0 0 0 0 0 0 0 0 0 0 0 0 0 0 0 0 0 0 0 0 0 0 0 0 0
0 0 0 0 0 0 0 0 0 0 0 0 0 0 0 0 0 0 0 0 0 0 0 0 0 0 0 0 0 0 0 0 0 0 0 0 0 0 0 0 0 0 0 0
-0 0 0 0 0 0 0 0 0 0 0 0 0 0 0 0 0 0 0 0 0 0 0 0 0 0 0 0 0 0 0 0 0 0 0 0 0 0 0 0 0 0 0 0
0 0 -0 0 0 0 0 0 0 0 0 0 0 0 0 0 0 0 0 0 0 0 0 0 0 0 0 0 0 0 0 0 0 0 0 0 0 0 0 0 0 0 0 0
0 0 0 0 0 0 0 0 0 0 0 0 0 0 0 0 0 0 0 0 0 0 0 0 0 0 0 -0 -0 -0 -0 -0 0 0 0 0 0 0 0 0 0 0 0 0
0 0 0 0 0 0 0 0 0 0 0 0 0 0 0 0 0 0 0 0 0 0 0 0 -0 -0 -0 -0 -0 -0 -0 -0 -0 -0 -0 -0 -0 0 0 0 0 0 0 0
0 0 0 0 0 0 0 0 0 0 0 0 0 0 0 0 0 0 0 0 0 0 0 0 -0 -0 -0 -0 -0 -0 -0 -0 -0 -0 -0 -0 -0 -0 0 0 0 0 0 0
0 0 0 0 0 0 0 0 0 0 0 0 0 0 0 0 0 0 0 0 0 0 0 -0 -0 -0 0 0 0 0 0 0 0 0 -0 -0 -0 -0 -0 -0 0 0 0 0
0 0 0 0 0 0 0 0 0 0 0 0 0 0 0 0 0 0 0 0 0 -0 -0 -0 -0 0 0 0 0 0 0 0 0 0 0 0 0 -0 -0 -0 0 0 0 0
0 0 0 0 0 0 0 0 0 0 0 0 0 0 0 0 0 0 0 -0 -0 -0 -0 -0 0 0 0 0 0 0 0 0 0 0 0 0 0 0 0 -0 -0 -0 -0 -0
0 0 0 0 0 0 0 0 0 0 0 0 0 0 0 0 -0 0 0 0 0 -0 -0 0 0 0 0 0 0 0 0 0 0 0 0 0 -0 -0 0 0 0 -0 -0 -0
0 0 0 0 0 0 0 0 0 0 0 0 0 0 0 0 0 0 -0 -0 -0 0 -0 -0 0 0 -0 -0 -0 0 0 0 0 0 0 0 0 -0 -0 -0 -0 0 0 0
0 0 0 0 0 0 0 0 0 0 0 0 0 0 0 0 0 0 0 0 0 0 0 0 -0 -0 -0 -0 -0 -0 -0 0 0 0 0 0 0 0 0 0 -0 -0 -0 -0
0 0 0 0 0 0 0 0 0 0 0 0 0 0 0 0 0 0 0 0 0 0 0 0 0 -0 -0 -0 -0 -0 -0 0 0 0 0 0 0 0 0 0 -0 -0 -0 -0
0 0 0 0 0 0 0 0 0 0 0 0 0 0 0 0 0 0 0 0 0 0 0 0 -0 0 0 0 0 -0 0 0 0 0 0 0 0 0 0 0 0 0 -0 -0
0 0 0 0 0 0 0 0 0 0 0 0 0 0 0 0 0 0 0 0 0 0 0 0 0 0 0 0 0 0 0 0 0 0 0 0 0 0 0 0 0 0 0 0
0 0 0 0 0 0 0 0 0 0 0 0 0 0 0 0 0 0 0 0 0 0 0 0 0 0 0 0 0 0 0 0 0 0 0 0 0 0 0 0 0 0 0 0
0 0 0 0 0 0 0 0 0 0 0 0 0 0 0 0 0 0 0 0 0 0 0 0 0 0 0 0 0 0 0 0 0 0 0 0 0 0 0 0 0 0 0 0
0 0 0 0 0 0 0 0 0 0 0 0 0 0 0 0 0 0 0 0 0 0 0 0 0 0 0 0 0 0 0 0 0 0 0 0 0 0 0 0 0 0 0 0
0 0 0 0 0 0 0 0 0 0 0 0 0 0 0 0 0 0 0 0 0 0 0 0 0 0 0 0 0 0 0 0 0 0 0 0 0 0 0 0 0 0 0 0
0 0 0 0 0 0 0 0 0 0 0 0 0 0 0 0 0 0 0 0 0 0 0 0 0 0 0 0 0 0 0 0 0 0 0 0 0 0 0 0 0 0 0 0
0 0 0 0 0 0 0 0 0 0 0 0 0 0 0 0 0 0 0 0 0 0 0 0 0 0 0 0 0 0 0 0 0 0 0 0 0 0 0 0 0 0 0 0
0 0 0 0 0 0 0 0 0 0 0 0 0 0 0 0 0 0 0 0 0 0 0 0 0 0 0 0 0 0 0 0 0 0 0 0 0 0 0 0 0 0 0 0
Wind_Speed_500mb
19 16 21 29 30 37 40 42 47 43 40 45 43 42 40 52 63 58 56 40 25 18 15 17 25 29 27 27 25 17 9 8 15 27 37 47 57 66 72 78 82 83 86 85
8 23 30 31 26 26 35 42 42 41 32 33 42 43 49 38 44 32 26 21 15 18 32 35 35 35 40 42 39 35 28 20 12 7 19 29 37 45 57 65 73 78 84 89
31 30 29 18 24 34 40 44 42 46 37 35 28 35 19 19 39 15 11 20 32 44 38 39 40 40 37 40 38 35 32 28 24 20 17 20 28 38 48 49 61 68 73 84
23 12 10 23 27 28 31 21 17 23 20 18 21 16 35 21 10 29 38 40 46 40 40 42 43 43 40 38 32 30 27 25 23 21 19 18 21 28 32 37 48 52 62 65
3 9 5 11 18 8 19 10 17 23 26 33 24 15 9 10 23 25 31 42 44 42 40 41 41 38 37 38 38 36 32 30 30 26 20 18 17 23 31 31 38 50 56 61
26 6 9 14 12 20 6 15 25 28 16 16 23 27 10 7 13 17 40 37 34 33 33 33 31 34 42 44 43 40 37 37 35 36 32 28 28 28 32 35 37 43 51 56
6 23 21 12 15 14 14 15 13 13 15 18 4 14 22 16 2 21 26 26 27 27 29 32 36 39 40 42 45 46 46 44 42 40 38 39 42 41 39 37 37 38 52 56
22 27 18 21 23 10 21 14 9 12 21 30 29 16 18 17 39 30 28 27 25 26 24 26 27 29 34 39 45 46 49 48 45 43 40 39 41 43 45 48 47 44 47 50
17 18 5 16 10 6 4 12 16 22 27 15 19 33 30 7 22 25 23 19 23 25 25 25 24 27 26 33 38 44 43 40 41 46 52 51 45 44 46 46 46 48 52 57
6 24 14 4 5 11 9 5 7 9 9 25 29 31 25 20 21 11 15 22 24 26 31 33 35 36 40 43 41 40 44 47 49 51 54 53 47 44 46 51 52 50 50 54
4 7 18 10 12 25 8 11 12 9 11 15 27 24 20 23 15 10 13 21 27 30 32 36 37 39 39 43 48 48 49 51 53 56 57 56 56 53 49 47 51 55 57 56
10 4 12 37 37 37 32 33 34 28 24 18 24 35 31 10 15 12 9 7 13 19 23 24 25 28 31 35 39 41 45 48 50 53 55 57 56 59 61 60 53 51 56 60
5 5 12 19 19 10 5 13 17 30 28 40 32 35 13 9 32 11 10 8 10 13 17 19 23 25 26 27 32 38 42 45 51 56 58 60 61 63 64 68 72 66 58 53
6 7 15 23 36 25 18 21 33 25 11 21 24 37 41 37 32 36 15 15 14 19 21 19 20 23 25 25 28 31 39 44 49 53 56 60 64 68 69 70 69 71 74 71
4 18 23 29 29 32 30 33 44 40 42 38 46 47 46 40 36 21 8 10 15 24 20 23 25 27 29 32 34 35 45 49 53 56 59 63 68 72 74 75 77 76 71 72
4 18 16 26 29 35 45 50 48 43 45 49 47 52 47 23 17 23 27 30 34 38 35 31 30 31 33 33 35 39 51 53 57 63 68 70 73 79 82 83 83 82 82 82
9 9 10 33 27 25 20 41 38 43 48 48 42 26 11 2 7 20 32 37 44 47 48 47 44 42 43 42 42 43 45 56 64 67 70 73 77 80 83 87 91 93 91 90
23 20 14 21 14 30 24 11 16 28 30 14 16 7 10 2 18 35 41 46 49 52 56 55 53 58 56 54 47 49 52 67 76 83 85 82 79 81 83 86 89 94 100 103
37 25 14 11 20 32 43 28 13 12 23 5 20 13 11 11 39 47 43 43 53 55 55 56 63 66 60 62 61 67 69 66 67 76 82 84 89 90 91 91 91 92 97 101
13 24 19 9 14 18 11 9 6 1 23 7 10 10 13 33 22 25 51 51 54 58 59 63 66 64 71 75 79 83 79 69 73 72 71 74 75 84 101 106 107 107 108 108
6 9 27 28 24 19 10 11 5 13 13 17 16 15 31 23 38 57 52 51 56 60 59 58 55 60 76 93 84 84 84 88 77 71 75 81 86 85 89 98 115 121 126 125
14 10 12 11 17 26 5 12 12 10 20 32 50 63 51 48 51 51 51 53 53 57 62 70 78 92 100 99 91 94 96 95 90 83 82 83 86 87 89 95 104 102 102 116
13 21 14 15 9 14 16 23 34 42 49 58 54 51 46 50 52 49 44 40 49 61 74 81 85 94 99 103 90 95 104 99 104 102 106 101 88 85 86 88 92 91 88 86
28 51 24 25 32 48 63 65 63 55 59 59 49 47 51 36 35 47 50 53 55 68 71 76 87 100 112 110 100 93 95 97 109 116 110 96 87 86 83 84 86 87 89 86
30 20 27 29 38 57 61 63 62 55 50 48 48 45 42 36 41 44 53 59 56 60 72 81 95 102 108 106 102 101 106 98 93 90 90 91 86 80 79 77 77 79 82 81
52 40 26 30 53 48 51 56 49 49 38 36 43 40 35 38 44 48 52 55 63 72 80 85 87 91 99 101 103 98 89 81 82 86 82 80 83 84 82 82 86 77 76 79
Wind_Direction_500mb
195 220 222 247 248 265 284 286 284 291 295 290 293 298 299 290 285 279 288 300 309 341 18 35 58 56 53 55 62 60 32 329 288 271 262 258 252 253 255 256 254 251 252 250
187 241 255 277 280 290 283 280 283 288 297 312 294 294 287 281 267 286 313 338 15 85 84 65 56 51 58 64 60 57 53 45 27 307 281 265 263 264 264 265 263 257 254 254
256 273 319 290 277 278 273 281 291 294 309 293 301 282 258 270 286 337 19 77 92 97 74 60 55 54 58 55 53 49 44 38 27 11 338 303 281 269 268 266 266 268 262 257
266 305 295 273 262 271 286 307 314 306 313 301 354 294 304 280 310 84 90 90 94 71 62 51 44 47 48 48 49 50 44 39 35 27 13 346 312 297 290 287 281 275 270 263
154 178 221 262 269 309 273 342 309 297 284 288 274 245 269 274 126 112 81 84 76 67 58 45 45 45 42 45 46 47 42 34 24 19 18 7 336 316 313 296 275 279 279 277
265 157 219 227 241 218 312 280 274 261 267 262 265 227 280 99 121 118 94 81 70 63 57 55 48 39 33 34 33 33 33 29 20 11 4 0 346 328 315 311 295 280 280 281
248 225 206 200 254 202 226 259 305 283 228 261 39 311 258 305 354 91 102 86 74 70 62 46 36 32 27 23 22 18 18 15 8 1 352 353 344 333 323 312 301 292 285 283
285 290 188 172 223 277 204 255 215 268 281 293 315 264 258 213 96 110 106 99 76 55 45 39 31 22 14 11 9 6 7 2 1 357 352 2 348 339 332 321 308 295 284 276
296 260 43 197 229 238 84 232 279 262 280 281 248 267 266 194 108 115 105 82 54 38 32 30 23 24 18 13 12 8 1 357 355 356 356 3 354 347 343 338 329 310 296 291
301 288 270 317 188 236 246 356 243 210 240 255 266 267 269 193 157 94 51 27 19 12 9 8 6 4 5 6 3 1 358 355 352 351 352 353 347 347 343 340 340 339 327 303
6 270 274 301 213 250 203 241 222 296 191 260 269 268 35 50 73 67 28 17 2 357 357 356 353 351 348 347 347 347 345 343 341 341 345 343 340 339 340 340 335 333 334 335
170 186 269 261 275 282 268 265 264 250 244 226 253 262 290 355 104 69 19 5 347 342 341 343 348 351 353 349 345 345 343 340 338 338 338 338 337 337 338 338 337 333 326 326
36 244 278 292 271 31 319 333 319 295 285 262 266 269 339 99 157 109 329 315 309 311 320 326 342 341 336 336 335 337 336 334 332 333 333 332 331 330 331 332 334 335 333 328
130 214 246 259 276 311 283 270 282 272 266 292 274 294 291 294 316 336 332 326 309 295 291 290 305 312 315 320 322 323 324 325 324 325 326 326 327 327 327 326 326 327 328 329
275 259 259 264 282 295 285 275 271 270 268 263 279 284 282 295 313 324 315 307 306 320 293 284 297 297 300 309 314 313 315 316 315 315 316 317 317 317 318 321 322 322 323 324
181 264 300 281 276 273 276 271 272 274 268 265 268 271 277 310 317 311 322 329 321 320 321 303 300 305 307 296 289 299 311 307 306 307 308 309 309 310 311 314 315 317 319 321
244 256 251 265 282 304 281 258 260 262 262 265 271 307 10 25 313 320 321 323 313 311 314 312 301 300 305 304 298 287 286 296 301 302 301 301 300 299 302 305 308 309 311 312
246 240 250 272 295 260 260 307 282 276 284 293 276 218 164 163 318 313 310 311 309 312 307 303 302 300 299 299 296 296 286 293 298 303 303 301 297 293 291 293 296 299 303 305
232 245 255 248 241 278 293 296 305 277 285 208 242 192 196 310 321 298 296 310 308 304 303 295 300 299 296 294 299 302 299 291 290 292 296 298 300 296 293 290 289 289 291 293
227 232 229 189 242 262 340 90 72 26 276 252 172 181 248 303 294 294 310 308 302 301 302 300 299 294 292 297 302 304 301 297 293 291 288 285 281 281 289 293 291 290 289 289
170 216 224 235 246 261 289 107 119 255 309 129 164 263 288 287 283 294 298 301 302 304 305 305 298 292 292 301 305 301 298 296 297 293 288 285 285 283 279 281 288 291 289 288
219 226 215 238 258 265 110 133 222 299 310 296 301 307 301 301 298 292 295 301 302 301 300 297 295 297 299 302 302 300 298 300 298 294 289 286 285 282 279 280 283 284 285 288
241 233 262 222 257 270 199 248 252 281 289 292 293 292 296 301 295 294 298 300 299 297 298 300 299 299 301 303 303 300 299 297 296 293 291 291 290 286 284 282 282 282 282 279
263 254 249 258 254 264 271 274 277 284 287 289 289 287 291 291 290 290 298 299 300 300 301 300 300 302 304 306 304 301 299 297 298 299 299 298 296 293 288 283 280 278 277 276
249 277 246 251 258 267 266 268 270 274 277 274 276 285 289 288 292 298 299 302 303 300 301 304 306 307 306 308 305 306 307 307 304 304 303 304 302 299 294 288 283 280 277 274
247 248 253 259 261 265 279 283 291 289 281 266 278 285 287 291 297 300 302 304 305 307 310 310 311 310 309 311 311 311 312 312 310 306 304 302 300 299 295 292 291 288 284 281
Wind_Speed_850mb
19 16 21 29 30 37 40 42 47 43 40 45 43 42 40 52 63 58 56 40 25 18 15 17 25 29 27 27 25 17 9 8 15 27 37 47 57 66 72 78 82 83 86 85
8 23 30 31 26 26 35 42 42 41 32 33 42 43 49 38 44 32 26 21 15 18 32 35 35 35 40 42 39 35 28 20 12 7 19 29 37 45 57 65 73 78 84 89
31 30 29 18 24 34 40 44 42 46 37 35 28 35 19 19 39 15 11 20 32 44 38 39 40 40 37 40 38 35 32 28 24 20 17 20 28 38 48 49 61 68 73 84
23 12 10 23 27 28 31 21 17 23 20 18 21 16 35 21 10 29 38 40 46 40 40 42 43 43 40 38 32 30 27 25 23 21 19 18 21 28 32 37 48 52 62 65
3 9 5 11 18 8 19 10 17 23 26 33 24 15 9 10 23 25 31 42 44 42 40 41 41 38 37 38 38 36 32 30 30 26 20 18 17 23 31 31 38 50 56 61
26 6 9 14 12 20 6 15 25 28 16 16 23 27 10 7 13 17 40 37 34 33 33 33 31 34 42 44 43 40 37 37 35 36 32 28 28 28 32 35 37 43 51 56
6 23 21 12 15 14 14 15 13 13 15 18 4 14 22 16 2 21 26 26 27 27 29 32 36 39 40 42 45 46 46 44 42 40 38 39 42 41 39 37 37 38 52 56
22 27 18 21 23 10 21 14 9 12 21 30 29 16 18 17 39 30 28 27 25 26 24 26 27 29 34 39 45 46 49 48 45 43 40 39 41 43 45 48 47 44 47 50
17 18 5 16 10 6 4 12 16 22 27 15 19 33 30 7 22 25 23 19 23 25 25 25 24 27 26 33 38 44 43 40 41 46 52 51 45 44 46 46 46 48 52 57
6 24 14 4 5 11 9 5 7 9 9 25 29 31 25 20 21 11 15 22 24 26 31 33 35 36 40 43 41 40 44 47 49 51 54 53 47 44 46 51 52 50 50 54
4 7 18 10 12 25 8 11 12 9 11 15 27 24 20 23 15 10 13 21 27 30 32 36 37 39 39 43 48 48 49 51 53 56 57 56 56 53 49 47 51 55 57 56
10 4 12 37 37 37 32 33 34 28 24 18 24 35 31 10 15 12 9 7 13 19 23 24 25 28 31 35 39 41 45 48 50 53 55 57 56 59 61 60 53 51 56 60
5 5 12 19 19 10 5 13 17 30 28 40 32 35 13 9 32 11 10 8 10 13 17 19 23 25 26 27 32 38 42 45 51 56 58 60 61 63 64 68 72 66 58 53
6 7 15 23 36 25 18 21 33 25 11 21 24 37 41 37 32 36 15 15 14 19 21 19 20 23 25 25 28 31 39 44 49 53 56 60 64 68 69 70 69 71 74 71
4 18 23 29 29 32 30 33 44 40 42 38 46 47 46 40 36 21 8 10 15 24 20 23 25 27 29 32 34 35 45 49 53 56 59 63 68 72 74 75 77 76 71 72
4 18 16 26 29 35 45 50 48 43 45 49 47 52 47 23 17 23 27 30 34 38 35 31 30 31 33 33 35 39 51 53 57 63 68 70 73 79 82 83 83 82 82 82
9 9 10 33 27 25 20 41 38 43 48 48 42 26 11 2 7 20 32 37 44 47 48 47 44 42 43 42 42 43 45 56 64 67 70 73 77 80 83 87 91 93 91 90
23 20 14 21 14 30 24 11 16 28 30 14 16 7 10 2 18 35 41 46 49 52 56 55 53 58 56 54 47 49 52 67 76 83 85 82 79 81 83 86 89 94 100 103
37 25 14 11 20 32 43 28 13 12 23 5 20 13 11 11 39 47 43 43 53 55 55 56 63 66 60 62 61 67 69 66 67 76 82 84 89 90 91 91 91 92 97 101
13 24 19 9 14 18 11 9 6 1 23 7 10 10 13 33 22 25 51 51 54 58 59 63 66 64 71 75 79 83 79 69 73 72 71 74 75 84 101 106 107 107 108 108
6 9 27 28 24 19 10 11 5 13 13 17 16 15 31 23 38 57 52 51 56 60 59 58 55 60 76 93 84 84 84 88 77 71 75 81 86 85 89 98 115 121 126 125
14 10 12 11 17 26 5 12 12 10 20 32 50 63 51 48 51 51 51 53 53 57 62 70 78 92 100 99 91 94 96 95 90 83 82 83 86 87 89 95 104 102 102 116
13 21 14 15 9 14 16 23 34 42 49 58 54 51 46 50 52 49 44 40 49 61 74 81 85 94 99 103 90 95 104 99 104 102 106 101 88 85 86 88 92 91 88 86
28 51 24 25 32 48 63 65 63 55 59 59 49 47 51 36 35 47 50 53 55 68 71 76 87 100 112 110 100 93 95 97 109 116 110 96 87 86 83 84 86 87 89 86
30 20 27 29 38 57 61 63 62 55 50 48 48 45 42 36 41 44 53 59 56 60 72 81 95 102 108 106 102 101 106 98 93 90 90 91 86 80 79 77 77 79 82 81
52 40 26 30 53 48 51 56 49 49 38 36 43 40 35 38 44 48 52 55 63 72 80 85 87 91 99 101 103 98 89 81 82 86 82 80 83 84 82 82 86 77 76 79
Wind_Direction_850mb
195 220 222 247 248 265 284 286 284 291 295 290 293 298 299 290 285 279 288 300 309 341 18 35 58 56 53 55 62 60 32 329 288 271 262 258 252 253 255 256 254 251 252 250
187 241 255 277 280 290 283 280 283 288 297 312 294 294 287 281 267 286 313 338 15 85 84 65 56 51 58 64 60 57 53 45 27 307 281 265 263 264 264 265 263 257 254 254
256 273 319 290 277 278 273 281 291 294 309 293 301 282 258 270 286 337 19 77 92 97 74 60 55 54 58 55 53 49 44 38 27 11 338 303 281 269 268 266 266 268 262 257
266 305 295 273 262 271 286 307 314 306 313 301 354 294 304 280 310 84 90 90 94 71 62 51 44 47 48 48 49 50 44 39 35 27 13 346 312 297 290 287 281 275 270 263
154 178 221 262 269 309 273 342 309 297 284 288 274 245 269 274 126 112 81 84 76 67 58 45 45 45 42 45 46 47 42 34 24 19 18 7 336 316 313 296 275 279 279 277
265 157 219 227 241 218 312 280 274 261 267 262 265 227 280 99 121 118 94 81 70 63 57 55 48 39 33 34 33 33 33 29 20 11 4 0 346 328 315 311 295 280 280 281
248 225 206 200 254 202 226 259 305 283 228 261 39 311 258 305 354 91 102 86 74 70 62 46 36 32 27 23 22 18 18 15 8 1 352 353 344 333 323 312 301 292 285 283
285 290 188 172 223 277 204 255 215 268 281 293 315 264 258 213 96 110 106 99 76 55 45 39 31 22 14 11 9 6 7 2 1 357 352 2 348 339 332 321 308 295 284 276
296 260 43 197 229 238 84 232 279 262 280 281 248 267 266 194 108 115 105 82 54 38 32 30 23 24 18 13 12 8 1 357 355 356 356 3 354 347 343 338 329 310 296 291
301 288 270 317 188 236 246 356 243 210 240 255 266 267 269 193 157 94 51 27 19 12 9 8 6 4 5 6 3 1 358 355 352 351 352 353 347 347 343 340 340 339 327 303
6 270 274 301 213 250 203 241 222 296 191 260 269 268 35 50 73 67 28 17 2 357 357 356 353 351 348 347 347 347 345 343 341 341 345 343 340 339 340 340 335 333 334 335
170 186 269 261 275 282 268 265 264 250 244 226 253 262 290 355 104 69 19 5 347 342 341 343 348 351 353 349 345 345 343 340 338 338 338 338 337 337 338 338 337 333 326 326
36 244 278 292 271 31 319 333 319 295 285 262 266 269 339 99 157 109 329 315 309 311 320 326 342 341 336 336 335 337 336 334 332 333 333 332 331 330 331 332 334 335 333 328
130 214 246 259 276 311 283 270 282 272 266 292 274 294 291 294 316 336 332 326 309 295 291 290 305 312 315 320 322 323 324 325 324 325 326 326 327 327 327 326 326 327 328 329
275 259 259 264 282 295 285 275 271 270 268 263 279 284 282 295 313 324 315 307 306 320 293 284 297 297 300 309 314 313 315 316 315 315 316 317 317 317 318 321 322 322 323 324
181 264 300 281 276 273 276 271 272 274 268 265 268 271 277 310 317 311 322 329 321 320 321 303 300 305 307 296 289 299 311 307 306 307 308 309 309 310 311 314 315 317 319 321
244 256 251 265 282 304 281 258 260 262 262 265 271 307 10 25 313 320 321 323 313 311 314 312 301 300 305 304 298 287 286 296 301 302 301 301 300 299 302 305 308 309 311 312
246 240 250 272 295 260 260 307 282 276 284 293 276 218 164 163 318 313 310 311 309 312 307 303 302 300 299 299 296 296 286 293 298 303 303 301 297 293 291 293 296 299 303 305
232 245 255 248 241 278 293 296 305 277 285 208 242 192 196 310 321 298 296 310 308 304 303 295 300 299 296 294 299 302 299 291 290 292 296 298 300 296 293 290 289 289 291 293
227 232 229 189 242 262 340 90 72 26 276 252 172 181 248 303 294 294 310 308 302 301 302 300 299 294 292 297 302 304 301 297 293 291 288 285 281 281 289 293 291 290 289 289
170 216 224 235 246 261 289 107 119 255 309 129 164 263 288 287 283 294 298 301 302 304 305 305 298 292 292 301 305 301 298 296 297 293 288 285 285 283 279 281 288 291 289 288
219 226 215 238 258 265 110 133 222 299 310 296 301 307 301 301 298 292 295 301 302 301 300 297 295 297 299 302 302 300 298 300 298 294 289 286 285 282 279 280 283 284 285 288
241 233 262 222 257 270 199 248 252 281 289 292 293 292 296 301 295 294 298 300 299 297 298 300 299 299 301 303 303 300 299 297 296 293 291 291 290 286 284 282 282 282 282 279
263 254 249 258 254 264 271 274 277 284 287 289 289 287 291 291 290 290 298 299 300 300 301 300 300 302 304 306 304 301 299 297 298 299 299 298 296 293 288 283 280 278 277 276
249 277 246 251 258 267 266 268 270 274 277 274 276 285 289 288 292 298 299 302 303 300 301 304 306 307 306 308 305 306 307 307 304 304 303 304 302 299 294 288 283 280 277 274
247 248 253 259 261 265 279 283 291 289 281 266 278 285 287 291 297 300 302 304 305 307 310 310 311 310 309 311 311 311 312 312 310 306 304 302 300 299 295 292 291 288 284 281